Moses Lake, WA

11:29 PM PDT on March 27, 2017 (GMT -0700)
Grant County International

Weather History for KMWH - November, 2014

Change the Weather History Date:

Saturday, November 1, 2014

  Actual Average Record
Temperature  
Mean Temperature 50 °F 43 °F  
Max Temperature 59 °F 54 °F 64 °F (1981)
Min Temperature 41 °F 32 °F 8 °F (2002)
Degree Days  
Heating Degree Days 15 22  
Month to date heating degree days 15 22  
Since 1 July heating degree days 363 659  
Cooling Degree Days 0 0  
Month to date cooling degree days 0 0  
Year to date cooling degree days 952 615  
Growing Degree Days 2 (Base 50)    
Moisture  
Dew Point 42 °F    
Average Humidity 74    
Maximum Humidity 100    
Minimum Humidity 47    
Precipitation  
Precipitation 0.00 in 0.03 in 0.12 in (2005)
Month to date precipitation 0.00 0.03  
Year to date precipitation 5.24 6.50  
Sea Level Pressure  
Sea Level Pressure 29.78 in    
Wind  
Wind Speed 8 mph (NNW)    
Max Wind Speed 18 mph    
Max Gust Speed 23 mph    
Visibility 9 miles    
Events      
T = Trace of Precipitation, MM = Missing Value Source: NWS Daily Summary

Daily Weather History Graph

Daily Weather History Graph

Search for Another Location

Airport or City:

Trip Planner

Search our weather history database for the weather conditions in past years. The results will help you decide how hot, cold, wet, or windy it might be!

Date:

Astronomy

Nov. 01, 2014 Rise Set
Actual Time 7:40 AM PDT 5:40 PM PDT
Civil Twilight 7:08 AM PDT 6:12 PM PDT
Nautical Twilight 6:32 AM PDT 6:48 PM PDT
Astronomical Twilight 5:56 AM PDT 7:23 PM PDT
Moon 2:58 PM PDT (11/1) 1:18 AM PDT (11/1)
Length of Visible Light 11h 03m
Length of Day
9h 59m
Waxing Gibbous, 69% of the Moon is Illuminated
Nov 1
Waxing Gibbous
Nov 6
Full
Nov 14
Last Quarter
Nov 22
New
Nov 29
First Quarter

Hourly Weather History & Observations

Time (PDT) Temp. Windchill Dew Point Humidity Pressure Visibility Wind Dir Wind Speed Gust Speed Precip Events Conditions
12:52 AM 46.0 °F 43.9 °F 44.1 °F 93% 29.78 in 10.0 mi WNW 4.6 mph - N/A   Partly Cloudy
1:52 AM 45.0 °F - 44.1 °F 97% 29.78 in 9.0 mi Calm Calm - N/A   Overcast
2:52 AM 44.1 °F 41.5 °F 43.0 °F 96% 29.77 in 10.0 mi NNW 4.6 mph - N/A   Overcast
3:38 AM 45.0 °F 42.6 °F 43.0 °F 93% 29.74 in 9.0 mi North 4.6 mph - N/A   Overcast
3:52 AM 45.0 °F 43.5 °F 44.1 °F 97% 29.76 in 9.0 mi North 3.5 mph - N/A   Overcast
4:52 AM 46.0 °F 43.9 °F 45.0 °F 96% 29.75 in 9.0 mi North 4.6 mph - N/A   Overcast
5:03 AM 46.0 °F 43.9 °F 45.0 °F 96% 29.74 in 9.0 mi NNW 4.6 mph - N/A   Overcast
5:52 AM 46.0 °F 41.9 °F 44.1 °F 93% 29.74 in 9.0 mi North 8.1 mph - N/A   Overcast
6:27 AM 46.0 °F 43.1 °F 45.0 °F 96% 29.74 in 9.0 mi North 5.8 mph - N/A   Overcast
6:52 AM 46.0 °F 43.9 °F 45.0 °F 96% 29.75 in 9.0 mi NNW 4.6 mph - N/A   Overcast
7:52 AM 45.0 °F 41.8 °F 44.1 °F 97% 29.75 in 7.0 mi North 5.8 mph - N/A   Mostly Cloudy
8:41 AM 46.0 °F 44.8 °F 45.0 °F 96% 29.74 in 6.0 mi NW 3.5 mph - N/A   Mostly Cloudy
8:52 AM 46.9 °F - 45.0 °F 93% 29.76 in 6.0 mi WNW 5.8 mph - N/A   Mostly Cloudy
9:43 AM 48.9 °F - 46.0 °F 90% 29.74 in 9.0 mi NW 3.5 mph - N/A   Scattered Clouds
9:52 AM 48.9 °F - 46.9 °F 93% 29.74 in 9.0 mi NW 3.5 mph - N/A   Partly Cloudy
10:52 AM 52.0 °F - 46.0 °F 80% 29.75 in 10.0 mi NW 6.9 mph - N/A   Mostly Cloudy
11:52 AM 53.1 °F - 42.1 °F 66% 29.74 in 10.0 mi North 13.8 mph - N/A   Clear
12:52 PM 54.0 °F - 39.9 °F 59% 29.72 in 10.0 mi North 16.1 mph - N/A   Clear
1:52 PM 59.0 °F - 39.9 °F 49% 29.71 in 10.0 mi North 16.1 mph - N/A   Clear
2:52 PM 57.0 °F - 39.0 °F 51% 29.72 in 10.0 mi NNW 15.0 mph - N/A   Clear
3:52 PM 55.9 °F - 37.9 °F 51% 29.74 in 10.0 mi NNW 11.5 mph - N/A   Clear
5:52 PM 51.1 °F - 39.9 °F 66% 29.75 in 10.0 mi NW 8.1 mph - N/A   Clear
7:52 PM 46.0 °F 40.6 °F 37.9 °F 73% 29.93 in 10.0 mi NW 11.5 mph - N/A   Clear
8:52 PM 46.0 °F 41.0 °F 35.1 °F 66% 29.95 in 10.0 mi NW 10.4 mph - N/A   Clear
9:52 PM 45.0 °F 39.7 °F 34.0 °F 65% 29.96 in 10.0 mi WNW 10.4 mph - N/A   Clear
10:52 PM 44.1 °F 39.5 °F 33.1 °F 65% 29.84 in 10.0 mi WNW 8.1 mph - N/A   Clear
11:52 PM 42.1 °F 37.7 °F 32.0 °F 67% 29.86 in 10.0 mi West 6.9 mph - N/A   Clear